Regional Weather Roundup
Issued by NWS Portland, ME

Home | Current Version | Previous Version | Text Only | Print | Product List | Glossary On
Versions: 1 2 3 4 5 6 7 8 9 10 11 12 13 14 15 16 17 18 19 20 21 22 23 24 25 26 27 28 29 30 31 32 33 34 35 36 37 38 39 40 41 42 43 44 45 46 47 48 49 50
297
ASUS41 KGYX 241410
RWRGYX
WEATHER ROUNDUP FOR MAINE AND NEW HAMPSHIRE
NATIONAL WEATHER SERVICE GRAY ME
1000 AM EDT TUE MAY 24 2016

MEZ002-005-006-010-012-015-018-020-021-024-026-027-029-241500-
MAINE

CITY           SKY/WX    TMP DP  RH WIND       PRES   REMARKS
PORTLAND       LGT RAIN  58  55  90 NE10      29.96S FOG
SANFORD        CLOUDY    55  52  88 E6        29.95S
BAR HARBOR     CLOUDY    54  51  90 E9        30.01R
WISCASSET      CLOUDY    62  53  72 E7        29.98S
ROCKLAND       CLOUDY    57  53  86 NE12G17   29.98S
FRYEBURG       CLOUDY    61  53  75 E5        29.96R
LEWISTONAUBURN CLOUDY    57  52  82 NE3       29.98S
AUGUSTA        CLOUDY    60  53  77 E6        29.98S
WATERVILLE     CLOUDY    60  54  80 VRB3      29.96F
BANGOR         CLOUDY    65  54  67 E7        30.00S
GREENVILLE       N/A     66  47  50 VRB3      29.97F
MILLINOCKET    SUNNY     66  53  63 VRB5      30.00F
HOULTON        SUNNY     66  53  63 CALM      30.00S
PRESQUE ISLE     N/A     63  56  78 MISG        N/A
FRENCHVILLE    SUNNY     68  53  58 SE9       29.98S
CARIBOU        SUNNY     67  54  63 S8        29.99S
$$

NHZ002-005-008-009-011-012-014-241500-
NEW HAMPSHIRE

CITY           SKY/WX    TMP DP  RH WIND       PRES   REMARKS
PORTSMOUTH     CLOUDY    54  52  94 NE10      29.94R FOG
ROCHESTER      LGT RAIN  56  53  90 VRB3      29.93F
NASHUA         LGT RAIN  57  55  93 N7        29.94S
MANCHESTER     LGT RAIN  57  54  89 NE8       29.93S
CONCORD        LGT RAIN  58  55  90 CALM      29.95R
LACONIA          N/A    N/A N/A N/A MISG        N/A
PLYMOUTH       PTSUNNY   63  55  75 CALM      29.94F
BERLIN         PTSUNNY   68  48  48 CALM      29.95F
WHITEFIELD     CLOUDY    70  50  49 E10       29.92F
JAFFREY        LGT RAIN  55  53  93 N5        29.93F
KEENE          CLOUDY    55  54  94 N3        29.93F
LEBANON        LGT RAIN  57  54  89 CALM      29.94F
MT WASHINGTON  MOSUNNY   45  37  76 E32         N/A
$$

VTZ005-007-008-241500-
VERMONT

CITY           SKY/WX    TMP DP  RH WIND       PRES   REMARKS
ST JOHNSBURY     N/A     67  46  47 MISG      29.91F
MONTPELIER     PTSUNNY   66  47  50 CALM      29.98S
BURLINGTON     PTSUNNY   67  44  43 CALM      29.92S
$$

MAZ007-012-024-CTZ003-RIZ002-NYZ038-NYZ072-241500-
SOUTHERN NEW ENGLAND AND NY

CITY           SKY/WX    TMP DP  RH WIND       PRES   REMARKS
BOSTON         CLOUDY    53  52  96 NE13      29.93F FOG
NANTUCKET      LGT RAIN  55  53  93 S13       29.87S VSB 1
PROVIDENCE     DRIZZLE   56  53  90 N14       29.88F FOG
HARTFORD       LGT RAIN  61  57  87 N13       29.89F
ALBANY         LGT RAIN  61  55  81 CALM      29.95R
NEW YORK CITY  LGT RAIN  62  62 100 NE6       29.92R
$$

ANZ081-ANZ082-ANZ150-NHZ014-MEZ023>029-241500-
COASTAL MARINE OBSERVATIONS

STATION/POSITION TIME  TEMP    WIND        PRES    WAVE
                       AIR SEA DIR/SP/G            HT/PER
                 (UTC) (F)     (DEG/KT/KT) (MB)    (FT/S)
MOUNT DESERT ROC 1400   45      30/ 15/ 16 1015.8F
MATINICUS ROCK   1400   47      60/ 17/ 19 1014.8R
ISLE OF SHOALS   1400   50      60/ 14/ 15 1013.8R
JEFFREYS LEDGE   1308      51                N/A     5/10
CASHES LEDGE BUO 1350   48 49   60/ 12/ 14 1014.1R   5/10
GEORGES BANK BUO 1350   55 49              1013.8S   5/ 8
$$

.............KEY..............
   WCI - WIND CHILL
   TC  - TEMPERATURE IN CELSIUS
   VSB - VISIBILITY IN MILES
   HX  - HEAT INDEX
   FAIR- INDICATES FEW OR NO CLOUDS BELOW 12,000 FT, WITH NO
         SIGNIFICANT WEATHER AND/OR OBSTRUCTIONS TO VISIBILITY.






USA.gov is the U.S. government's official web portal to all federal, state and local government web resources and services.